Wetbulb
52.68 52.55 52.48 52.40 52.06 51.79 51.68 52.04 52.48 52.67 52.99 53.18 53.45 53.72 54.13 54.07 53.98 52.35 50.43 51.94 47.82 43.56 45.26 45.08 45.01 42.02 41.85 40.85 36.33 39.63 39.03 38.47 36.55 33.08 32.72 32.43 31.84 33.49 32.35 34.26 32.19 31.06 30.41 30.53 31.30 28.83 27.98 40.07 40.06 39.27 43.11 45.90 45.40 46.97
52.24 52.22 52.13 52.19 51.71 51.54 51.52 51.89 52.46 52.61 52.93 53.45 53.94 53.91 54.03 54.07 54.10 51.68 48.49 51.54 51.04 45.96 44.70 47.70 47.90 47.79 46.23 45.20 42.53 42.73 38.84 38.68 38.47 34.18 34.89 34.71 32.56 33.59 34.56 30.92 36.92 32.79 35.64 34.87 35.71 34.97 39.94 42.44 41.74 44.75 47.55 46.01 45.09 46.46
52.00 52.10 52.05 52.24 51.38 51.48 51.58 51.68 52.30 52.89 53.06 53.35 53.88 53.63 53.60 54.64 54.25 52.41 50.48 50.52 49.48 45.04 44.63 45.29 46.04 48.73 49.71 47.81 49.16 42.17 43.90 42.57 41.39 41.41 37.31 35.37 32.58 33.97 30.36 32.29 34.12 35.97 38.70 34.54 33.82 38.63 40.57 42.99 45.69 47.07 48.53 47.56 46.87 48.38
51.67 51.87 51.85 51.87 51.24 51.21 51.57 51.88 52.40 52.83 53.39 53.53 53.78 54.15 54.00 54.51 54.31 51.89 50.23 50.56 47.97 44.64 41.86 44.25 48.21 47.81 49.04 48.60 47.30 48.18 46.45 44.81 43.31 40.54 37.20 35.25 33.79 37.30 33.62 33.05 33.94 36.93 38.00 35.04 36.10 40.07 41.02 41.84 45.71 47.52 49.16 49.27 48.29 48.99
51.47 51.61 51.65 51.76 51.32 51.17 51.30 51.52 52.11 52.79 52.84 53.49 53.61 53.98 54.09 54.45 52.94 51.55 50.53 50.89 49.24 46.27 42.75 45.89 48.00 47.90 47.65 47.28 45.71 45.90 45.58 43.94 41.79 39.22 36.49 34.20 37.70 35.53 37.29 37.33 34.36 39.24 38.25 35.28 34.89 42.04 42.91 41.77 44.87 46.49 47.49 48.51 49.18 49.10
51.20 51.24 51.51 51.75 51.64 51.09 51.13 51.45 51.94 52.61 52.69 53.19 53.65 54.04 54.06 54.07 52.31 51.77 48.18 50.05 50.12 49.85 44.60 41.08 48.68 46.16 47.27 47.66 46.29 44.85 44.52 43.46 42.40 39.65 37.93 39.76 40.06 38.02 34.78 32.94 37.81 41.50 43.38 43.49 41.21 44.34 43.76 44.32 45.16 45.74 45.51 46.29 46.51 46.08
51.03 51.28 51.41 51.75 51.79 51.50 51.49 51.67 51.76 51.83 52.36 52.84 52.71 52.97 53.20 53.10 53.41 49.94 47.03 49.44 49.25 49.97 44.71 42.26 44.56 46.35 46.75 45.91 45.06 45.69 44.63 43.26 43.34 41.36 40.01 39.29 39.02 39.24 35.61 32.03 38.77 41.94 43.11 43.46 44.73 44.50 42.47 43.42 42.39 44.80 45.23 45.65 46.66 46.28
50.94 51.07 51.48 51.63 51.39 51.49 51.47 51.47 52.06 51.71 51.91 52.72 52.34 51.65 51.78 52.00 50.50 49.50 50.92 50.11 50.05 47.73 45.16 41.68 43.64 46.12 47.82 44.59 42.95 42.81 43.20 43.94 42.38 41.74 43.29 39.71 38.91 38.91 33.12 40.11 41.23 42.95 44.15 43.64 43.66 44.67 43.55 44.32 44.44 44.08 45.30 44.98 43.83 43.83
50.90 51.03 51.34 51.56 51.62 51.47 51.28 51.05 51.55 51.69 51.93 52.46 52.46 52.36 52.18 50.65 49.55 49.97 51.18 51.21 50.25 46.74 43.08 42.51 40.53 42.50 48.79 45.61 44.54 42.37 42.94 40.50 42.27 41.06 41.83 42.01 35.12 33.12 39.24 41.50 41.63 42.15 42.97 42.94 43.55 43.13 42.91 42.51 42.19 42.50 42.71 42.83 42.31 42.63
50.86 50.83 51.06 51.23 51.40 51.09 50.80 50.87 51.91 52.73 52.22 52.05 51.39 50.43 49.60 50.67 51.68 51.60 48.40 44.86 45.84 45.29 44.41 40.60 45.06 42.63 48.29 46.56 45.67 42.54 41.83 40.28 36.60 40.71 43.67 39.87 38.47 42.98 44.36 44.44 44.41 44.85 45.81 45.24 41.85 40.62 40.93 40.89 40.92 41.34 41.57 42.49 42.63 42.83
50.66 50.73 51.05 51.19 51.14 50.86 50.61 50.52 52.20 51.59 50.79 50.78 50.27 49.93 51.14 50.99 50.37 47.95 45.07 43.99 44.24 42.16 44.15 41.86 42.76 43.44 49.24 44.51 45.66 45.58 41.94 40.33 34.51 36.78 37.39 37.66 36.64 41.34 45.33 45.06 45.85 45.11 46.73 45.95 45.35 45.03 44.74 43.61 42.67 41.46 42.07 42.67 43.00 42.98
50.56 50.57 50.69 50.97 50.74 50.65 50.38 50.48 51.96 51.32 51.38 51.26 51.35 51.09 50.48 49.31 47.09 44.53 42.76 43.18 42.51 43.39 46.22 45.60 47.15 44.39 48.55 48.89 45.35 46.95 42.71 41.32 35.30 41.83 38.04 34.18 40.19 44.29 44.76 44.98 45.73 45.95 45.29 46.07 46.24 45.12 45.44 45.01 44.70 43.60 43.11 43.31 43.88 43.96
50.44 50.45 50.55 50.79 50.67 50.89 51.08 51.91 52.09 51.08 51.06 52.31 50.83 49.32 49.21 46.78 40.09 40.75 38.81 42.32 42.02 45.90 46.13 45.98 44.02 48.72 47.07 48.66 46.62 45.13 38.44 37.39 41.68 37.51 33.98 39.47 44.24 44.61 44.95 45.87 45.75 46.25 45.20 46.10 46.68 46.75 46.18 46.12 46.66 45.84 44.39 44.81 45.12 44.62
50.16 50.50 50.73 50.76 50.24 50.11 51.15 52.24 52.16 51.55 51.05 49.39 48.89 39.48 44.33 42.90 44.25 45.37 45.01 45.03 47.41 45.67 45.94 44.41 44.87 47.78 47.88 45.62 43.88 38.88 39.70 39.95 34.51 31.49 33.95 41.90 44.57 45.43 46.01 46.30 45.60 45.30 45.33 44.83 45.54 47.72 47.28 47.41 47.10 47.62 47.64 47.05 45.24 44.31
50.36 50.56 50.98 51.20 51.12 51.79 52.04 52.04 52.11 51.85 51.05 49.07 49.23 41.09 44.31 48.28 47.41 47.79 47.29 46.19 47.84 46.67 45.13 46.08 45.70 44.39 42.87 40.64 41.28 39.10 35.58 32.96 35.22 35.72 40.98 45.04 45.42 44.73 46.41 46.43 45.91 45.81 45.58 45.32 45.62 46.32 47.23 46.60 47.61 46.88 47.11 47.78 47.39 45.81
50.53 51.03 51.93 50.92 51.39 51.81 51.58 52.11 52.53 52.69 52.15 50.47 49.84 48.00 48.94 45.11 47.67 47.32 47.18 47.01 47.62 46.47 45.70 45.11 43.23 41.10 39.65 40.42 37.49 35.77 34.55 33.67 38.03 42.07 44.14 43.93 44.39 45.54 46.72 46.05 46.38 46.45 45.74 45.74 46.02 46.55 47.62 47.12 46.71 44.86 45.11 45.05 46.13 47.30
50.04 52.76 50.71 50.50 50.65 51.59 51.61 52.86 52.36 50.93 50.99 50.06 49.52 51.19 49.35 47.25 46.86 48.15 47.77 48.91 47.05 46.36 43.89 42.99 39.22 38.10 40.55 38.57 36.39 39.00 38.10 40.50 42.08 42.92 43.52 43.84 44.34 44.76 44.60 43.62 44.79 45.97 45.17 46.04 45.30 45.39 46.42 46.67 45.57 44.07 43.41 43.97 44.33 44.95
48.79 51.97 50.13 49.97 50.22 51.53 53.24 52.38 53.27 52.79 50.57 52.73 49.14 51.23 48.54 49.79 48.39 49.04 48.43 48.11 46.89 45.55 44.33 42.18 42.25 39.03 37.35 35.25 36.20 40.30 40.77 41.32 43.33 43.82 43.75 44.39 44.77 45.09 44.23 43.57 44.32 44.92 45.36 44.45 44.68 44.17 44.48 44.98 43.41 43.00 43.37 43.49 43.79 44.50
49.52 50.07 50.27 50.53 49.96 50.77 51.58 53.25 53.20 50.31 51.29 51.82 50.83 50.23 49.54 49.36 49.63 49.69 49.57 48.70 47.07 47.39 44.94 42.81 39.88 37.82 37.88 40.38 40.23 41.67 41.54 42.09 43.01 44.34 44.55 44.94 44.90 44.17 43.85 44.16 44.42 44.97 44.63 44.30 44.69 44.26 44.08 43.75 42.92 43.43 43.65 44.20 43.15 43.71
50.17 51.52 52.30 51.19 51.14 52.31 51.99 54.49 54.75 51.36 49.69 51.85 50.67 50.25 49.67 49.85 51.38 51.46 49.06 48.88 49.05 46.86 43.83 41.15 41.28 42.22 41.94 43.54 42.50 42.62 44.46 45.17 43.99 43.53 44.36 45.24 44.75 43.34 43.62 42.97 43.53 44.07 43.37 43.34 43.96 41.57 44.33 44.22 43.67 43.95 44.03 43.37 43.49 43.09
51.17 53.90 51.65 52.97 52.48 52.64 53.11 53.67 52.99 52.19 51.92 50.83 50.17 50.87 51.67 52.92 51.10 49.57 48.40 48.26 46.83 43.69 42.86 44.50 44.93 45.75 47.42 45.54 44.20 44.64 45.10 45.01 45.68 45.87 43.63 42.63 43.35 42.94 43.22 43.20 43.96 43.35 42.74 43.31 43.94 42.68 42.54 43.41 43.42 44.44 44.25 43.91 44.30 44.40
53.65 52.72 55.17 53.33 54.35 54.64 54.22 56.00 53.18 52.27 50.27 50.71 52.23 51.79 50.98 50.06 49.13 49.51 49.61 47.50 45.70 46.93 48.17 47.60 48.12 48.86 48.70 48.96 48.41 46.39 46.79 46.50 45.89 43.52 40.50 41.58 43.03 42.59 42.30 42.30 43.73 43.49 44.05 43.97 43.35 43.58 43.27 43.65 44.28 44.79 44.05 43.84 43.89 44.28
52.57 53.57 55.68 55.70 53.65 47.96 48.06 53.08 50.25 50.85 48.99 49.73 50.12 48.32 48.73 48.89 49.83 50.56 46.89 47.91 48.58 50.80 50.97 48.59 50.20 50.72 48.37 48.48 47.32 46.96 47.28 45.63 43.79 43.20 42.91 43.05 42.55 42.92 42.97 42.92 43.24 42.48 42.24 43.14 44.05 43.98 43.87 40.17 41.34 44.06 43.97 44.24 44.06 43.85
51.96 54.91 53.04 52.81 51.87 47.51 52.61 50.29 52.10 50.89 50.12 48.46 47.12 45.34 46.95 48.13 50.21 47.25 45.36 47.90 49.30 50.28 48.87 49.69 49.33 49.12 48.95 48.08 48.64 48.07 47.74 45.05 44.00 42.59 43.67 42.68 41.61 41.82 42.18 41.85 42.86 43.43 42.92 43.81 43.83 43.72 44.14 44.18 41.74 44.08 43.87 42.87 42.32 42.12
45.57 46.59 47.00 38.12 48.49 48.57 46.91 47.74 48.29 47.98 45.91 46.66 45.40 45.90 47.55 49.35 45.70 44.63 44.36 47.31 48.51 49.63 50.86 50.66 50.63 50.06 47.22 46.63 46.00 44.10 42.76 43.02 42.41 42.20 43.11 43.07 42.12 40.83 41.28 42.23 42.25 42.43 43.83 43.66 42.92 43.46 43.57 43.36 43.90 43.96 43.07 42.61 41.71 41.63
37.58 48.37 44.41 48.56 49.54 48.24 48.52 46.16 46.32 46.40 46.78 46.10 46.11 49.01 48.98 46.86 43.52 42.17 46.07 48.29 49.65 50.79 51.13 50.71 50.12 49.39 48.15 46.61 46.23 42.14 43.63 45.38 44.83 43.09 43.91 42.85 42.65 42.40 41.06 41.75 41.99 40.82 42.70 43.15 42.55 41.98 42.85 42.91 42.32 41.76 41.61 41.17 37.87 41.95
40.97 47.70 50.89 52.03 50.79 50.32 49.37 50.09 50.11 48.15 46.08 45.94 47.36 46.99 47.07 41.81 41.12 46.05 50.25 50.75 51.36 52.23 52.06 50.34 50.28 48.13 45.30 44.96 45.53 45.61 45.67 45.19 44.56 43.15 43.12 43.57 43.55 43.89 42.77 41.48 39.74 40.93 44.43 43.58 42.16 42.38 42.09 42.08 41.49 41.69 41.74 42.25 42.42 42.38
50.47 50.83 48.35 50.61 50.22 51.89 49.14 48.17 47.25 46.87 47.21 49.56 48.47 44.60 43.80 43.59 44.49 49.90 50.91 51.96 51.96 46.69 43.49 43.15 43.46 43.25 42.21 41.55 42.10 43.44 43.28 43.14 42.64 42.85 43.00 42.37 42.10 42.18 42.76 43.46 44.62 39.61 44.11 43.63 43.62 43.61 43.55 44.13 42.55 42.19 41.84 41.75 42.43 42.25
50.02 53.41 52.72 50.29 50.53 50.21 50.40 49.96 49.74 51.18 51.89 50.19 47.98 46.71 47.36 50.72 52.10 50.78 50.44 48.36 47.49 45.05 43.31 42.31 41.34 42.59 42.11 41.86 41.35 41.31 41.79 42.54 42.34 40.14 39.16 38.91 40.30 39.91 42.94 44.73 44.61 44.55 44.33 44.12 38.04 40.17 42.26 43.57 43.61 43.10 42.72 42.65 42.68 42.97
49.99 52.83 50.99 50.17 49.21 49.53 51.79 52.94 52.22 52.39 52.52 52.17 51.80 51.36 50.99 51.51 50.07 48.27 46.71 45.62 44.63 44.06 43.57 43.20 42.66 42.89 41.36 41.15 39.84 39.18 40.27 40.89 40.91 39.91 38.32 38.34 39.07 41.59 42.72 42.96 43.68 44.21 45.35 44.82 43.77 42.87 38.52 41.81 40.66 42.87 42.22 42.42 43.05 42.90
52.66 52.11 51.25 51.34 50.63 51.50 52.80 52.55 52.48 52.39 51.96 51.23 51.54 50.67 48.89 48.39 47.75 46.01 44.91 44.59 44.08 43.61 42.81 41.54 41.19 42.14 41.60 40.79 40.00 39.09 37.17 39.45 40.12 40.64 41.17 41.94 42.63 42.95 42.92 43.44 44.08 44.30 44.05 43.73 43.24 42.75 42.38 42.10 41.84 41.39 41.00 40.61 40.28 40.43
51.23 51.05 51.05 49.41 49.56 51.33 51.80 51.09 50.58 50.45 50.43 50.12 50.21 50.80 49.35 49.07 45.83 44.66 43.95 44.16 43.94 43.01 40.23 42.12 41.20 39.77 40.90 40.68 40.30 39.71 37.47 39.99 40.39 40.88 41.68 42.39 42.46 42.87 43.35 43.70 43.74 43.50 42.98 42.38 42.51 42.20 41.73 41.10 40.99 40.99 40.76 39.81 39.79 39.89
52.29 51.74 51.24 49.81 48.85 48.36 50.13 49.97 49.24 48.75 49.28 49.01 49.59 49.94 49.20 48.88 46.10 45.60 45.40 45.89 45.86 44.51 43.17 42.85 42.07 41.78 41.70 41.34 40.56 39.97 39.74 40.69 37.86 35.33 35.54 34.96 34.62 37.63 42.17 42.94 42.92 42.65 42.17 41.98 41.83 41.75 40.73 40.16 40.03 39.89 39.68 39.43 39.31 39.20
MSLP
1024.73 1024.32 1023.81 1023.44 1023.15 1022.60 1022.05 1021.80 1021.48 1021.04 1020.66 1020.36 1020.06 1019.97 1019.89 1019.92 1020.12 1020.50 1020.93 1020.95 1021.06 1020.79 1019.78 1019.68 1019.52 1019.34 1019.00 1018.92 1018.69 1018.23 1017.62 1017.56 1017.34 1017.14 1016.68 1016.16 1015.43 1014.95 1014.70 1014.46 1014.68 1015.11 1015.53 1015.20 1015.22 1014.72 1013.33 1012.30 1010.99 1010.00 1009.34 1008.73 1008.33 1007.80
1024.47 1024.19 1023.64 1023.26 1022.94 1022.52 1021.98 1021.66 1021.33 1020.92 1020.53 1020.21 1019.98 1019.88 1019.82 1019.99 1020.24 1020.49 1020.88 1020.98 1021.05 1020.97 1019.96 1019.75 1019.51 1019.37 1019.24 1019.06 1018.86 1018.36 1018.25 1017.86 1017.84 1017.72 1017.33 1016.84 1016.19 1015.61 1014.94 1014.80 1015.20 1015.32 1015.14 1014.57 1014.43 1013.69 1013.02 1012.54 1011.62 1011.19 1010.27 1009.39 1008.98 1008.35
1024.21 1023.81 1023.48 1023.10 1022.79 1022.19 1021.79 1021.52 1021.22 1020.82 1020.45 1020.14 1019.90 1019.73 1019.77 1019.89 1020.16 1020.47 1020.78 1020.98 1021.09 1020.69 1019.61 1019.12 1018.72 1018.87 1018.88 1018.83 1018.70 1018.43 1017.88 1017.91 1017.87 1018.28 1018.01 1017.64 1017.03 1016.97 1016.33 1015.90 1015.43 1015.13 1015.12 1014.74 1014.60 1013.42 1012.83 1012.24 1011.59 1011.01 1010.41 1009.66 1009.26 1008.63
1024.12 1023.48 1023.06 1022.74 1022.52 1022.07 1021.60 1021.36 1021.04 1020.66 1020.37 1020.04 1019.84 1019.78 1019.85 1019.98 1020.12 1020.34 1020.57 1020.71 1020.92 1020.76 1019.90 1018.61 1018.50 1018.52 1018.60 1018.44 1018.35 1018.19 1017.95 1017.94 1018.12 1018.17 1018.11 1018.13 1017.85 1017.62 1017.06 1016.81 1016.13 1015.66 1014.89 1014.60 1013.96 1013.27 1012.85 1012.12 1011.88 1011.13 1010.28 1009.82 1009.41 1008.96
1023.86 1023.27 1022.94 1022.60 1022.36 1022.02 1021.45 1021.18 1020.90 1020.54 1020.29 1020.01 1019.80 1019.85 1019.84 1020.02 1020.28 1020.47 1020.58 1020.65 1020.70 1020.85 1020.04 1018.56 1018.14 1018.26 1018.50 1018.46 1018.41 1018.26 1017.88 1017.71 1017.90 1018.13 1018.50 1018.70 1018.52 1018.25 1017.35 1016.80 1016.53 1016.07 1015.07 1014.24 1013.59 1013.06 1012.25 1012.60 1012.48 1011.79 1010.88 1010.11 1009.77 1009.40
1023.57 1022.89 1022.52 1022.28 1021.79 1021.59 1021.34 1021.02 1020.80 1020.50 1020.30 1020.07 1019.89 1019.92 1019.92 1020.05 1020.24 1020.39 1020.36 1020.60 1020.65 1020.66 1020.30 1019.10 1018.23 1018.14 1018.40 1018.52 1018.46 1018.36 1018.23 1018.28 1018.43 1018.82 1019.16 1019.06 1019.00 1018.66 1017.88 1017.32 1017.31 1016.18 1015.43 1015.04 1014.50 1013.97 1013.47 1013.13 1013.21 1012.42 1011.62 1011.10 1010.69 1010.40
1023.25 1022.55 1022.23 1022.01 1021.54 1021.35 1021.05 1020.78 1020.69 1020.47 1020.29 1020.13 1020.01 1020.02 1020.03 1020.16 1020.22 1020.20 1020.36 1020.26 1020.62 1020.74 1020.22 1019.08 1018.24 1017.81 1018.30 1018.42 1018.55 1018.50 1018.61 1018.78 1018.72 1019.08 1019.29 1019.30 1019.05 1018.87 1018.37 1017.89 1017.39 1016.69 1016.17 1015.40 1014.73 1014.00 1013.73 1013.28 1013.27 1012.80 1012.17 1011.80 1011.49 1011.12
1022.85 1022.13 1021.86 1021.65 1021.10 1020.94 1020.82 1020.53 1020.47 1020.34 1020.25 1020.13 1020.06 1020.06 1020.02 1020.14 1020.24 1020.06 1020.09 1020.37 1020.54 1020.41 1020.20 1019.34 1018.11 1017.94 1018.18 1018.16 1018.54 1019.02 1018.76 1018.80 1019.03 1019.16 1019.19 1019.26 1019.23 1019.00 1018.55 1017.95 1017.58 1016.96 1016.00 1015.78 1015.73 1015.36 1014.77 1014.51 1013.73 1012.97 1012.45 1011.78 1011.58 1011.44
1022.37 1021.69 1021.48 1021.33 1020.77 1020.58 1020.51 1020.29 1020.26 1020.18 1020.02 1019.89 1019.83 1019.93 1019.94 1019.96 1019.82 1019.88 1020.12 1020.39 1020.52 1020.75 1019.82 1019.28 1018.42 1017.62 1017.80 1017.87 1018.36 1019.00 1018.96 1018.92 1019.56 1019.08 1018.88 1019.00 1019.06 1018.92 1018.59 1017.90 1017.46 1017.34 1016.80 1016.38 1016.06 1015.94 1015.52 1015.04 1014.68 1014.40 1014.11 1013.49 1013.20 1012.82
1021.91 1021.33 1021.17 1020.91 1020.40 1020.29 1020.18 1019.95 1019.86 1019.77 1019.73 1019.73 1019.76 1019.79 1019.34 1019.55 1019.75 1019.97 1020.19 1020.18 1020.19 1020.14 1019.83 1019.04 1018.31 1017.48 1017.28 1017.04 1017.28 1018.04 1018.38 1018.39 1018.75 1019.13 1018.92 1018.70 1018.64 1018.42 1018.22 1018.00 1017.74 1017.44 1017.08 1016.77 1016.35 1016.16 1016.06 1015.66 1015.73 1015.36 1014.88 1014.32 1014.13 1013.66
1021.27 1020.93 1020.81 1020.47 1020.12 1019.86 1019.73 1019.63 1019.65 1019.62 1019.66 1019.53 1019.26 1019.15 1019.44 1019.70 1019.62 1019.26 1018.88 1018.88 1018.87 1018.79 1018.55 1018.10 1017.82 1017.33 1016.87 1016.48 1016.40 1016.88 1017.34 1017.83 1018.32 1018.81 1018.48 1018.25 1017.99 1017.79 1017.67 1017.54 1017.50 1017.37 1017.10 1017.14 1016.98 1016.74 1016.66 1016.78 1016.41 1016.08 1015.79 1015.40 1015.15 1014.86
1020.76 1020.48 1020.36 1020.00 1019.58 1019.31 1019.26 1019.28 1019.46 1019.58 1019.22 1019.19 1019.31 1019.28 1019.20 1018.88 1018.48 1018.05 1017.50 1017.69 1017.58 1016.83 1016.69 1016.85 1016.81 1017.01 1016.58 1016.54 1016.31 1016.44 1016.41 1017.07 1017.40 1018.24 1017.91 1017.78 1017.47 1017.30 1017.22 1017.13 1016.94 1016.91 1016.94 1016.88 1016.98 1016.87 1016.60 1016.56 1016.73 1016.40 1016.10 1015.85 1015.34 1015.31
1020.34 1020.02 1019.70 1019.46 1019.11 1018.84 1018.83 1019.00 1019.23 1019.33 1019.30 1019.16 1018.96 1018.48 1018.25 1017.82 1017.24 1016.54 1016.24 1016.02 1015.87 1015.49 1015.39 1015.68 1016.05 1016.16 1016.45 1016.33 1016.08 1016.08 1016.06 1016.78 1017.56 1017.35 1017.63 1017.29 1017.13 1017.05 1016.94 1016.82 1016.70 1016.62 1016.47 1016.43 1016.49 1016.77 1016.79 1016.42 1016.04 1016.01 1016.12 1016.31 1016.10 1015.62
1019.87 1019.46 1018.98 1018.77 1018.60 1018.46 1018.50 1018.64 1018.96 1019.34 1019.24 1018.50 1018.04 1017.67 1017.27 1016.44 1015.83 1015.18 1015.00 1014.88 1014.66 1014.80 1014.92 1015.28 1015.40 1015.66 1015.72 1015.65 1015.63 1015.72 1016.61 1016.65 1016.70 1016.92 1016.86 1016.75 1016.76 1016.75 1016.82 1016.80 1016.64 1016.40 1016.33 1016.08 1015.99 1016.06 1016.20 1016.25 1016.23 1016.14 1015.92 1015.62 1015.32 1015.06
1019.45 1018.91 1018.31 1018.32 1018.32 1018.04 1018.03 1018.33 1018.85 1019.00 1018.47 1017.80 1017.42 1016.64 1015.91 1015.05 1014.79 1014.49 1014.53 1014.43 1014.21 1014.51 1014.64 1014.73 1014.85 1014.92 1014.87 1015.12 1015.49 1015.84 1016.27 1016.42 1016.69 1016.56 1016.63 1016.66 1016.82 1016.82 1016.56 1016.52 1016.44 1016.27 1016.04 1015.86 1015.86 1015.80 1015.79 1015.84 1015.92 1016.04 1015.87 1015.71 1015.38 1015.14
1018.95 1018.38 1018.35 1018.48 1018.09 1017.80 1017.92 1018.48 1018.80 1018.49 1017.82 1017.21 1016.58 1015.56 1014.80 1014.82 1014.00 1014.00 1013.94 1013.76 1013.97 1014.20 1014.53 1014.54 1014.33 1014.28 1014.58 1014.92 1015.04 1015.40 1015.69 1016.07 1016.39 1016.81 1016.83 1016.83 1016.89 1016.74 1016.54 1016.41 1016.27 1016.17 1016.05 1015.94 1015.86 1015.85 1015.85 1015.70 1015.84 1015.97 1015.91 1015.87 1015.58 1015.34
1018.47 1017.97 1018.35 1018.25 1018.12 1017.97 1018.19 1018.26 1018.06 1017.48 1016.67 1016.08 1014.95 1014.50 1014.41 1014.24 1013.95 1013.68 1013.65 1013.56 1014.03 1013.93 1014.00 1014.30 1014.30 1014.59 1015.11 1014.80 1015.01 1015.59 1015.65 1015.92 1016.26 1016.64 1016.92 1017.12 1017.02 1016.82 1016.58 1016.39 1016.14 1016.02 1015.91 1015.94 1015.96 1015.96 1015.97 1015.90 1015.91 1015.86 1015.78 1015.75 1015.56 1015.38
1018.39 1017.88 1018.00 1018.14 1018.24 1018.12 1018.07 1017.83 1017.04 1016.27 1015.54 1014.63 1014.28 1013.53 1013.94 1013.76 1013.67 1013.93 1014.04 1013.96 1014.10 1014.01 1014.27 1014.69 1014.98 1015.19 1015.52 1015.57 1015.51 1015.71 1015.98 1016.18 1016.27 1016.42 1016.97 1017.02 1016.99 1016.87 1016.64 1016.35 1016.14 1016.02 1015.92 1015.93 1015.94 1015.99 1016.03 1015.98 1015.94 1015.88 1015.98 1016.05 1015.82 1015.67
1017.84 1017.60 1017.38 1017.62 1017.96 1017.81 1017.20 1016.78 1016.41 1015.34 1014.28 1013.88 1013.56 1013.51 1013.50 1013.53 1013.91 1013.98 1014.21 1014.52 1014.63 1014.55 1014.56 1014.77 1015.34 1016.31 1017.31 1017.21 1016.36 1016.10 1016.18 1016.14 1016.03 1016.39 1016.72 1016.83 1016.82 1016.72 1016.54 1016.33 1016.10 1015.95 1016.04 1016.06 1016.06 1015.99 1016.11 1016.41 1016.44 1016.31 1016.28 1016.20 1016.06 1016.06
1017.06 1016.83 1016.22 1016.76 1017.38 1017.10 1016.50 1015.84 1015.78 1014.97 1013.98 1013.54 1013.55 1013.48 1013.66 1013.96 1014.30 1014.61 1014.71 1014.60 1014.67 1014.67 1014.85 1015.51 1016.52 1017.54 1017.98 1017.40 1017.16 1016.67 1016.35 1016.22 1016.24 1016.18 1016.09 1016.28 1016.58 1016.55 1016.45 1016.38 1016.18 1016.19 1016.29 1016.45 1016.36 1016.36 1016.24 1016.38 1016.58 1016.68 1016.73 1016.76 1016.34 1016.22
1016.64 1016.69 1016.94 1016.81 1016.94 1016.70 1016.01 1015.20 1014.77 1014.31 1013.72 1013.58 1013.63 1013.69 1013.90 1014.10 1014.42 1014.57 1014.57 1014.86 1014.59 1015.23 1015.92 1016.80 1017.25 1017.41 1017.12 1017.16 1016.84 1016.51 1016.74 1016.65 1016.30 1016.30 1016.34 1016.21 1016.52 1016.53 1016.43 1016.44 1016.45 1016.34 1016.29 1016.39 1016.35 1016.35 1016.41 1016.51 1016.82 1016.98 1017.02 1016.97 1016.89 1016.76
1016.47 1016.46 1016.49 1016.65 1016.20 1016.00 1015.56 1014.86 1014.47 1014.24 1014.11 1013.64 1013.70 1013.90 1013.86 1014.11 1014.53 1014.98 1015.14 1014.88 1015.38 1015.92 1016.19 1016.54 1016.69 1016.66 1016.77 1016.43 1016.17 1016.31 1016.35 1016.66 1016.73 1016.58 1016.68 1016.72 1016.46 1016.40 1016.49 1016.60 1016.39 1016.44 1016.49 1016.48 1016.59 1016.51 1016.71 1017.06 1017.23 1017.28 1017.32 1017.40 1017.31 1017.25
1016.40 1016.42 1016.06 1015.90 1015.72 1015.50 1015.11 1014.71 1014.37 1014.01 1013.84 1013.82 1013.86 1013.96 1014.33 1014.67 1014.95 1014.97 1015.04 1015.48 1015.71 1015.94 1016.14 1016.31 1016.38 1016.41 1016.30 1016.15 1016.18 1016.33 1016.48 1016.57 1016.46 1016.38 1016.54 1016.66 1016.86 1016.94 1016.74 1016.77 1016.74 1016.59 1016.50 1016.74 1016.92 1016.87 1016.92 1017.50 1017.70 1017.58 1017.73 1017.69 1017.60 1017.52
1016.38 1016.15 1015.74 1015.53 1015.31 1014.88 1014.56 1014.21 1014.20 1014.07 1014.05 1014.07 1014.26 1014.36 1014.74 1015.02 1015.04 1014.81 1015.15 1015.63 1016.02 1016.24 1016.12 1016.22 1016.36 1016.01 1015.85 1016.00 1015.80 1016.08 1016.41 1016.62 1016.54 1016.56 1016.66 1016.71 1016.84 1017.17 1017.27 1017.20 1017.17 1017.21 1017.31 1017.09 1016.94 1017.06 1017.23 1017.42 1017.57 1017.61 1017.82 1017.88 1017.97 1017.92
1016.80 1016.34 1015.96 1015.38 1015.14 1014.78 1014.25 1013.98 1013.98 1014.01 1014.08 1014.44 1014.50 1014.67 1015.07 1015.30 1015.10 1015.14 1015.45 1015.72 1015.88 1015.90 1015.97 1016.07 1016.07 1015.89 1015.73 1015.69 1015.82 1016.20 1016.46 1016.23 1016.25 1016.43 1016.72 1016.83 1017.00 1017.21 1017.40 1017.47 1017.50 1017.76 1017.66 1017.19 1017.11 1017.26 1017.56 1017.90 1017.94 1017.82 1017.83 1018.00 1018.25 1018.29
1016.46 1015.77 1015.49 1014.74 1014.56 1014.33 1014.06 1014.04 1014.13 1014.19 1014.32 1014.45 1014.62 1014.99 1015.30 1015.30 1015.26 1015.40 1015.60 1015.76 1015.76 1015.96 1016.04 1016.13 1016.05 1015.60 1015.71 1016.02 1015.88 1015.95 1015.97 1016.14 1016.17 1016.24 1016.27 1016.60 1016.68 1016.72 1017.02 1017.23 1017.40 1017.89 1018.28 1018.03 1017.76 1017.71 1017.78 1018.07 1018.23 1018.38 1018.50 1018.56 1018.79 1018.46
1015.74 1014.83 1014.48 1014.42 1014.16 1014.11 1014.19 1014.37 1014.40 1014.28 1014.26 1014.32 1014.60 1014.83 1015.09 1015.16 1015.35 1015.66 1015.80 1016.01 1016.21 1016.38 1016.56 1016.59 1016.29 1016.14 1016.21 1016.33 1016.32 1016.40 1016.34 1016.34 1016.40 1016.69 1016.84 1016.88 1017.18 1017.33 1017.48 1017.60 1017.94 1018.64 1018.66 1018.52 1018.59 1018.34 1018.12 1018.34 1018.46 1018.60 1018.72 1018.90 1018.96 1018.92
1014.57 1014.20 1013.80 1013.79 1013.81 1013.87 1013.76 1014.01 1013.97 1013.92 1014.02 1014.46 1014.67 1014.67 1014.82 1015.00 1015.45 1015.77 1016.04 1016.41 1016.64 1016.92 1016.98 1017.10 1017.10 1017.18 1017.28 1017.37 1017.32 1017.01 1016.90 1016.94 1017.08 1017.17 1017.29 1017.63 1018.00 1018.13 1018.26 1018.49 1018.69 1018.67 1018.72 1018.88 1018.89 1018.75 1018.63 1018.64 1018.58 1018.64 1018.84 1019.02 1019.04 1019.19
1013.86 1013.38 1013.34 1013.14 1013.23 1013.54 1013.40 1013.34 1013.40 1013.64 1013.80 1014.09 1014.23 1014.57 1015.02 1015.28 1015.72 1015.93 1016.25 1016.61 1016.91 1016.93 1016.98 1017.24 1017.69 1017.80 1017.88 1017.97 1017.98 1017.98 1017.75 1017.42 1017.12 1017.23 1017.36 1017.70 1017.94 1018.74 1018.96 1018.76 1018.72 1018.84 1018.93 1019.06 1019.52 1019.41 1019.27 1019.02 1019.02 1018.99 1019.26 1019.35 1019.34 1019.51
1012.74 1012.76 1012.51 1012.53 1012.61 1012.52 1012.75 1013.10 1013.34 1013.74 1014.16 1014.35 1014.51 1014.94 1015.26 1015.68 1016.10 1016.46 1016.40 1016.63 1016.72 1016.92 1017.28 1017.51 1017.84 1017.81 1018.01 1018.14 1018.48 1018.80 1019.01 1018.85 1018.62 1018.39 1018.31 1018.58 1018.92 1019.17 1019.10 1019.16 1019.12 1019.22 1019.52 1019.54 1019.42 1019.56 1019.82 1019.56 1019.60 1019.49 1019.62 1019.61 1019.62 1019.57
1012.06 1012.08 1011.95 1011.95 1012.14 1012.64 1012.87 1013.32 1013.65 1013.86 1014.03 1014.25 1014.54 1014.58 1014.89 1015.40 1016.08 1016.39 1016.51 1016.73 1017.01 1017.28 1017.48 1017.82 1018.22 1018.42 1018.50 1018.70 1018.80 1018.98 1019.48 1019.86 1019.87 1019.82 1019.74 1019.70 1019.62 1019.54 1019.55 1019.65 1019.72 1019.77 1019.79 1019.79 1019.70 1019.68 1019.77 1019.80 1019.80 1019.87 1019.90 1019.90 1020.03 1019.87
1011.42 1011.32 1011.37 1011.60 1012.21 1012.90 1013.03 1012.99 1013.27 1013.50 1013.81 1014.00 1014.22 1014.60 1014.95 1015.17 1015.62 1016.15 1016.79 1016.89 1017.02 1017.23 1017.91 1018.03 1018.46 1019.06 1019.41 1019.71 1019.89 1020.10 1020.22 1020.32 1020.44 1020.50 1020.55 1020.50 1020.48 1020.32 1020.05 1019.98 1019.99 1020.04 1020.08 1020.07 1020.03 1020.02 1020.08 1020.10 1020.11 1020.16 1020.23 1020.35 1020.40 1020.41
1010.73 1010.86 1011.04 1011.38 1011.96 1012.37 1012.54 1012.66 1012.78 1013.05 1013.28 1013.35 1013.61 1013.99 1014.18 1014.46 1015.11 1015.97 1016.89 1016.96 1016.88 1017.06 1017.71 1018.34 1018.94 1019.46 1019.84 1020.04 1020.32 1020.58 1020.68 1020.97 1021.44 1021.62 1021.51 1021.53 1021.56 1021.06 1020.46 1020.42 1020.45 1020.57 1020.56 1020.50 1020.45 1020.46 1020.54 1020.62 1020.64 1020.73 1020.78 1020.80 1020.84 1020.85
Wind_Speed
12 14 15 15 16 16 14 13 13 12 11 10 8 6 5 2 10 3 1 2 1 1 5 2 5 5 5 3 2 4 4 0 2 3 3 3 3 1 3 5 8 8 8 7 7 7 11 12 12 6 6 2 6 8
13 15 16 15 16 15 14 13 12 12 10 10 7 5 3 3 9 4 1 1 1 1 4 2 5 7 5 5 4 2 2 3 2 3 2 3 3 4 8 3 2 5 3 2 4 2 4 8 6 13 8 8 5 7
14 15 15 14 16 13 13 13 12 11 9 7 7 3 3 8 10 4 2 2 1 2 4 2 1 1 4 3 5 3 0 3 2 1 3 3 3 4 5 4 3 2 1 3 3 2 6 3 7 6 8 7 7 6
15 15 14 13 14 13 11 11 11 10 7 7 4 5 6 7 10 5 2 3 0 1 2 1 1 2 2 4 2 4 4 2 1 1 3 3 3 5 3 3 3 4 7 5 4 6 3 4 10 11 8 5 6 7
15 15 14 13 13 12 11 10 10 9 6 6 1 5 7 8 6 3 1 2 1 1 3 4 4 3 2 3 4 5 2 3 3 3 3 4 3 4 4 2 4 9 7 4 3 12 7 12 12 14 14 12 8 9
15 14 13 12 10 11 10 9 9 8 6 5 1 5 7 8 6 1 2 3 3 1 2 3 4 3 2 2 5 7 6 4 3 3 3 3 3 6 4 4 10 15 12 14 7 8 11 8 12 14 15 15 15 14
15 14 13 13 10 10 9 8 8 6 5 4 2 1 5 7 2 2 3 2 5 2 2 4 3 2 2 1 2 2 4 3 2 2 2 2 4 6 3 6 14 13 13 15 16 11 11 17 12 16 17 16 13 14
15 13 12 13 11 10 9 7 7 5 5 4 1 3 2 4 2 2 1 8 5 1 2 3 3 2 5 1 0 2 2 2 4 2 1 2 2 3 4 10 10 12 11 14 14 14 13 12 14 18 18 18 18 17
15 13 12 12 10 10 9 7 6 5 5 4 3 1 1 2 2 2 5 6 1 2 2 2 3 3 2 1 2 1 2 2 2 3 3 2 3 4 5 11 11 9 10 12 12 13 14 17 16 16 15 17 17 17
15 13 13 12 11 11 9 7 7 6 5 3 1 2 2 2 2 6 3 2 2 2 2 3 1 2 3 3 3 3 1 2 1 3 3 3 3 3 5 5 6 5 6 9 11 14 14 16 14 15 15 14 13 13
14 14 13 12 11 11 9 6 6 5 3 2 2 2 2 1 2 3 1 1 1 3 4 4 4 3 2 2 1 2 3 3 2 1 1 1 3 4 6 7 5 3 3 3 3 5 8 9 11 11 12 14 12 13
14 14 14 12 11 8 6 4 5 2 2 1 2 1 2 2 2 2 1 2 3 3 3 2 1 4 1 1 2 1 1 2 3 3 1 0 1 5 5 7 8 6 3 2 1 3 6 8 9 10 10 11 12 12
15 15 13 11 10 7 6 7 9 3 2 2 2 2 0 1 3 1 3 2 3 2 2 1 3 2 2 3 1 1 1 3 3 1 0 2 2 4 4 5 6 6 6 5 4 3 3 6 8 9 10 10 10 9
17 17 14 10 7 6 6 5 10 6 2 2 1 5 1 2 4 3 3 3 3 4 5 4 2 2 1 3 1 1 2 2 2 2 2 1 3 4 3 2 5 7 5 6 5 6 6 5 5 7 7 8 10 11
18 18 11 5 2 8 7 5 12 3 3 2 2 3 5 3 4 3 2 4 3 1 3 2 2 2 2 2 1 2 3 1 1 2 1 2 4 6 6 4 4 5 5 4 5 5 4 5 5 6 6 6 7 8
19 11 4 5 9 8 10 12 4 2 2 2 4 4 3 3 3 2 3 4 2 1 2 1 1 1 2 1 1 2 1 1 1 1 2 4 5 4 5 6 5 5 4 4 4 5 3 4 5 5 4 6 7 7
16 0 5 8 11 5 8 1 3 4 3 4 4 4 5 5 5 3 3 2 2 2 1 1 3 2 1 2 2 2 1 2 1 1 2 3 4 5 6 6 4 3 3 2 2 4 2 2 3 4 5 6 7 7
4 2 3 7 6 4 2 3 3 3 5 4 4 2 3 3 3 2 2 1 2 1 2 1 2 2 4 3 1 1 1 1 1 1 3 3 4 5 5 6 4 3 4 3 1 4 3 2 4 4 4 4 4 6
11 13 16 11 5 2 2 4 3 3 5 2 4 3 3 2 0 1 1 1 1 0 4 2 4 3 2 4 3 1 1 1 2 1 2 3 4 4 5 4 4 3 4 2 2 3 4 5 4 4 4 4 5 5
12 8 5 9 10 2 3 2 1 3 4 2 2 2 2 2 3 3 3 1 0 0 2 3 3 3 1 7 5 4 1 2 2 2 3 3 2 4 4 5 4 3 2 2 3 2 3 3 4 4 5 5 6 7
4 4 8 4 3 3 2 2 3 3 3 3 2 3 2 1 3 2 2 2 2 3 3 3 4 3 10 8 5 2 1 3 2 2 3 3 3 4 4 4 2 3 4 2 2 3 1 3 3 4 5 6 6 6
1 2 2 3 2 2 3 2 3 2 3 2 1 2 2 2 3 4 3 3 3 2 2 4 5 5 5 7 5 5 3 5 3 2 2 1 2 3 4 5 4 3 2 2 3 3 3 3 3 3 4 5 5 7
4 2 2 1 2 1 4 1 3 1 3 3 3 2 3 3 3 2 3 2 2 1 2 1 3 4 5 4 1 4 5 5 3 3 3 3 3 2 3 4 4 4 4 4 2 2 2 3 3 3 4 4 4 5
2 2 1 1 2 3 2 1 1 2 1 2 3 3 3 3 4 2 3 2 1 2 2 2 2 4 2 3 1 2 1 2 1 2 2 4 3 2 3 3 4 4 4 3 3 3 4 5 5 4 4 5 5 5
2 1 1 4 1 3 2 2 1 1 2 2 3 1 3 3 2 3 2 3 2 2 3 3 3 2 3 4 3 3 3 4 2 3 3 3 3 4 3 3 6 4 4 4 5 4 4 3 1 3 4 5 5 5
2 2 3 2 2 3 1 2 1 2 2 2 1 2 1 1 2 3 2 3 2 2 3 4 5 4 2 1 1 2 2 1 1 4 2 5 5 4 4 2 1 5 6 5 6 6 2 4 5 6 3 4 3 2
1 3 3 1 1 2 1 1 0 2 3 2 1 1 0 2 2 1 1 1 2 3 3 3 3 3 4 5 3 4 4 3 3 3 3 3 3 3 3 3 8 6 6 8 9 7 5 6 6 3 4 4 4 4
4 3 4 3 3 2 2 2 3 4 2 2 3 3 1 1 1 1 2 2 3 4 5 6 6 6 6 6 5 5 6 5 6 7 8 9 7 6 7 9 7 7 4 4 5 5 5 2 4 4 4 3 3 5
4 3 3 4 3 3 4 4 3 2 3 4 3 2 3 1 1 1 2 2 4 4 6 6 6 5 6 7 8 8 8 7 5 5 6 5 4 5 2 3 5 5 4 4 7 6 5 4 4 4 4 4 5 3
3 5 3 3 3 3 1 2 2 3 1 2 2 3 2 2 2 1 3 4 5 5 5 5 4 4 5 6 7 9 8 8 8 7 6 6 5 3 3 4 5 5 4 3 3 5 4 6 5 4 3 3 2 1
2 4 3 3 1 1 1 3 4 3 2 2 1 2 3 3 2 2 3 4 6 6 7 7 6 5 6 6 5 6 7 6 7 8 6 5 5 6 6 5 4 4 4 4 3 4 4 4 3 3 4 4 4 3
4 5 2 3 2 2 4 2 3 2 2 3 3 3 3 3 3 3 4 5 6 6 5 7 7 6 6 6 7 8 7 6 5 5 6 6 6 6 5 5 4 4 5 5 4 5 5 5 4 4 4 4 4 4
2 2 2 4 4 4 4 4 4 3 2 3 3 4 4 4 3 3 3 1 2 6 8 7 8 7 8 8 9 8 8 8 10 9 10 9 8 6 4 4 5 5 6 5 5 5 6 6 6 5 4 4 4 4
Wind_Direction
329 322 327 330 337 341 348 347 341 341 338 343 343 345 335 61 153 133 59 200 11 283 300 312 327 333 340 327 305 317 296 94 282 291 300 324 291 4 206 128 157 168 187 198 221 236 247 357 335 313 21 4 4 15
322 323 325 335 339 342 349 348 344 340 345 346 347 2 2 119 153 124 96 76 147 254 286 284 278 283 294 291 283 314 248 286 330 303 330 308 326 326 351 98 42 160 238 248 241 268 300 284 287 279 312 317 321 353
321 321 329 336 337 343 349 348 341 341 349 357 347 18 100 132 149 130 129 162 204 302 263 274 105 214 291 283 269 301 56 316 310 12 336 339 351 331 358 27 301 314 89 225 268 218 266 27 319 305 319 316 312 344
317 321 328 334 338 343 350 347 343 339 354 352 11 101 109 136 148 141 177 148 125 46 319 104 67 183 327 359 327 267 287 192 213 265 41 10 340 353 339 296 333 327 306 307 244 233 211 299 341 350 333 346 343 352
313 320 328 329 338 342 349 346 339 341 351 351 10 162 140 142 131 104 143 188 225 326 309 290 306 168 145 47 30 14 53 48 40 46 23 19 339 337 319 283 11 345 335 329 341 10 17 39 9 12 27 25 22 7
313 318 324 320 332 339 342 342 337 330 340 343 85 165 156 153 148 181 230 159 189 271 264 283 315 215 200 342 25 18 24 37 54 49 13 357 345 345 0 357 348 2 15 20 11 23 42 30 25 20 31 31 31 27
310 317 322 320 332 332 331 335 329 314 322 317 319 241 175 164 186 279 359 51 153 181 256 276 262 77 143 27 22 5 37 46 33 86 41 355 344 350 349 5 343 352 3 16 16 352 18 25 18 17 24 22 29 38
309 317 319 311 329 328 327 329 317 302 298 311 264 58 121 173 265 247 100 143 152 186 244 304 285 236 185 327 59 1 11 40 26 22 96 16 336 349 17 352 353 347 357 20 30 22 26 19 16 22 17 15 21 24
305 317 316 307 318 323 319 322 312 295 274 267 230 158 175 201 218 62 145 132 114 300 297 268 296 351 177 103 92 105 332 54 339 7 28 349 345 35 333 346 358 347 5 1 25 33 33 24 23 24 20 21 18 10
306 317 311 306 316 320 315 312 298 274 245 173 177 217 215 139 194 139 178 204 193 172 213 247 306 263 228 186 162 146 205 125 83 28 312 28 8 18 12 345 332 348 15 19 19 20 18 29 24 21 23 25 9 4
310 316 309 308 320 316 302 298 292 129 135 202 209 230 64 303 215 202 217 197 190 255 191 228 223 278 187 272 23 237 137 149 107 99 248 5 341 334 355 349 17 350 348 56 27 16 26 31 23 24 25 28 20 12
311 311 307 309 320 308 288 251 214 220 234 21 26 95 185 217 208 252 252 167 203 285 187 213 206 215 228 274 254 166 127 173 86 160 193 311 305 302 335 348 348 352 291 266 322 356 354 11 22 21 25 21 18 19
309 307 307 308 313 304 283 236 202 151 145 183 198 241 11 204 4 306 328 302 299 249 218 222 303 219 171 212 155 216 103 82 151 112 168 251 274 272 302 335 350 344 328 262 244 234 273 322 344 7 10 18 18 13
310 306 309 302 295 290 287 248 183 168 244 230 259 322 251 270 236 231 229 271 286 252 311 309 254 245 156 184 158 157 73 183 125 141 215 173 259 300 310 319 321 337 327 319 292 265 276 299 330 328 333 350 6 19
312 314 329 88 307 298 289 189 164 187 211 232 187 249 230 281 264 261 266 277 230 271 295 208 189 238 133 143 47 125 173 97 218 200 259 251 318 301 303 320 317 318 311 313 335 309 312 345 337 356 352 336 336 1
316 316 87 31 8 11 118 130 176 217 226 222 228 249 218 262 274 244 232 261 150 97 172 224 259 240 84 13 201 89 93 171 80 255 292 306 301 297 313 321 309 301 277 279 328 349 343 344 14 3 356 17 355 323
314 116 122 44 20 99 158 217 196 213 242 222 240 231 258 277 251 254 231 270 142 216 311 305 298 360 109 191 132 182 74 56 101 296 283 299 316 328 326 317 319 298 249 199 21 29 34 349 36 33 42 21 7 5
250 168 342 19 2 125 221 217 246 233 248 235 246 262 206 243 253 289 277 237 239 157 151 108 118 289 329 350 44 127 191 159 191 298 301 286 281 300 299 318 314 299 199 167 41 27 57 101 45 43 47 23 15 14
285 294 286 269 226 221 228 198 227 262 248 253 257 252 256 302 136 223 101 348 351 14 132 143 93 73 23 300 306 160 198 214 70 70 277 289 296 300 316 337 317 226 189 160 97 53 64 52 35 41 43 38 38 23
298 317 312 154 172 202 243 205 223 261 268 332 267 280 298 308 347 14 7 62 199 358 47 52 91 97 35 281 299 316 316 127 155 295 350 49 21 332 8 8 11 101 113 79 105 86 87 91 64 66 53 40 26 18
313 129 117 153 155 235 272 248 241 241 296 283 26 338 340 340 50 14 29 333 73 35 71 67 110 120 239 252 237 164 130 245 251 334 357 8 21 4 30 39 67 136 138 141 241 126 138 57 94 84 62 49 39 33
295 242 186 192 242 191 263 220 285 331 267 342 343 327 0 21 15 21 344 45 57 60 131 173 187 215 261 283 290 208 194 193 212 134 171 235 39 71 57 40 51 74 359 352 357 13 64 55 102 100 73 70 51 52
298 195 219 216 238 96 263 301 274 358 298 350 332 349 24 28 12 296 76 44 66 277 254 250 242 257 289 315 253 164 181 187 199 155 141 115 112 101 95 68 36 28 32 55 344 317 89 107 115 100 101 67 54 44
271 295 253 231 193 261 302 241 264 303 344 2 355 3 19 348 329 38 78 37 20 303 241 274 338 305 267 222 145 162 158 224 216 151 163 163 162 97 28 47 49 42 12 14 61 108 128 131 160 156 102 75 55 40
352 324 109 292 221 258 265 287 289 279 301 23 334 13 19 332 12 50 45 4 329 282 274 257 262 304 328 350 42 85 145 169 182 273 193 195 144 145 135 89 63 11 351 6 52 60 79 64 62 132 102 61 73 71
108 224 162 208 154 224 277 274 289 317 320 282 14 63 31 2 27 55 15 342 331 334 346 349 339 341 42 22 313 177 211 230 146 279 235 199 190 183 154 74 88 86 20 18 17 7 22 80 86 80 38 92 84 84
276 228 200 226 290 126 196 119 207 235 243 236 130 159 19 33 39 17 324 70 325 11 359 352 355 34 56 46 5 3 357 358 17 11 25 97 89 59 67 46 101 83 48 31 15 6 23 115 125 169 115 74 61 28
240 234 209 153 186 216 243 199 208 220 208 157 162 196 180 151 91 20 33 33 31 80 83 73 64 60 55 47 32 35 48 59 88 106 104 83 67 69 101 109 106 96 52 46 30 31 33 122 128 120 117 135 97 58
231 196 199 229 186 209 228 215 206 209 167 175 184 153 145 130 67 37 63 51 131 131 108 101 85 90 83 69 54 42 31 19 27 53 58 67 95 82 102 128 78 81 98 62 69 35 26 72 71 78 84 76 108 51
220 182 211 208 213 226 87 175 172 137 97 81 98 122 128 114 43 14 145 142 147 123 107 96 94 87 73 69 70 62 44 37 34 39 55 60 53 47 107 84 98 96 70 71 63 100 120 121 118 87 90 120 116 85
159 187 225 220 249 70 68 114 110 117 144 125 116 143 128 132 110 76 97 116 125 129 120 108 95 82 80 66 55 68 73 47 42 48 50 68 65 68 85 88 88 80 80 70 68 77 98 92 93 108 122 85 80 34
187 210 217 192 142 110 159 181 156 182 165 177 163 134 153 162 158 145 141 144 141 131 117 126 123 104 94 91 84 81 68 71 57 52 63 75 71 66 70 72 74 73 75 79 83 84 91 81 80 76 86 74 56 48
179 179 160 145 147 192 195 185 183 177 201 212 204 185 188 189 167 125 128 221 175 146 141 124 118 120 113 107 108 102 87 79 72 63 66 57 46 39 65 74 75 73 77 77 79 88 82 86 83 73 65 56 49 35